{"data":{"norad_id":57784,"intl_designator":"2023-134P","name":"STARLINK-30388","alt_names":[],"object_type":"PAYLOAD","status":"ACTIVE","operator":null,"country":"US","launch_date":"2023-09-04","launch_site_code":"AFETR","launch_vehicle":null,"mission":null,"orbit_class":"UNKNOWN","rcs_meters":null,"size_class":null,"mass_kg":null,"dimensions":null,"purposes":["comms"],"wikipedia_slug":null,"has_3d_model":false,"image_url":null,"decayed_at":null,"tle_current":{"epoch":"2026-05-25T05:17:59.307648Z","epoch_age_seconds":70025,"freshness":"FRESH","line1":"1 57784U 23134P   26145.22082532  .00001830  00000+0  76034-4 0  9991","line2":"2 57784  43.0013 122.0736 0001333 267.3833  92.6866 15.27568466151214","mean_motion":15.27568466,"eccentricity":0.0001333,"inclination_deg":43.0013,"raan_deg":122.0736,"arg_perigee_deg":267.3833,"mean_anomaly_deg":92.6866,"bstar":7.6034e-5,"rev_number":15121,"period_min":94.267460480557,"perigee_km":482.16903249189,"apogee_km":483.9982339127,"semimajor_km":6861.2206332023,"source":"CELESTRAK","updated_at":"2026-05-25T13:38:18.406565Z"}}}